COSMO-SKYMED 2

Last updated on Sat Oct 25 2025 00:02:32 GMT+0000 (Coordinated Universal Time)

1 32376U 07059A 25297.75191983 .00000869 00000+0 11579-3 0 9998 2 32376 97.8893 119.7940 0001448 86.9803 273.1576 14.82139894967124
UTC large
Height (km)
Speed (km/s)
/
Latitude / Longitude
Inclination (degrees)
Orbital Period (minutes)
Azimuth
Elevation
Range (km)
Doppler Factor

Next 0 passes for location: London (51.5072 / 0.1276)

Sorry there are no passes over London.